Total_Precipitation_Accumulation
0.03 0.10 0.33 0.48 0.48 0.48 0.48 0.45 0.42 0.37 0.37 0.41 0.45 0.49 0.52 0.49 0.45 0.41 0.39 0.41 0.45 0.49 0.55 0.62 0.65 0.67 0.65 0.64 0.61 0.54 0.52 0.53 0.54 0.52 0.55 0.60 0.61 0.56 0.50 0.46 0.35 0.41 0.62
0.03 0.12 0.30 0.39 0.42 0.45 0.47 0.45 0.41 0.36 0.35 0.40 0.44 0.44 0.45 0.45 0.45 0.45 0.43 0.43 0.45 0.50 0.57 0.65 0.64 0.64 0.65 0.62 0.57 0.48 0.44 0.40 0.40 0.39 0.36 0.34 0.51 0.57 0.51 0.53 0.48 0.67 0.79
0.03 0.10 0.22 0.32 0.38 0.42 0.44 0.41 0.39 0.39 0.39 0.42 0.43 0.43 0.42 0.42 0.43 0.47 0.49 0.48 0.49 0.46 0.48 0.56 0.60 0.60 0.58 0.53 0.48 0.43 0.41 0.34 0.29 0.29 0.27 0.21 0.42 0.67 0.65 0.65 0.61 0.80 0.80
0.03 0.09 0.15 0.27 0.34 0.39 0.41 0.41 0.42 0.44 0.44 0.48 0.48 0.46 0.45 0.45 0.44 0.48 0.48 0.47 0.48 0.46 0.45 0.48 0.48 0.49 0.45 0.38 0.37 0.38 0.40 0.36 0.27 0.22 0.13 0.13 0.38 0.70 0.76 0.70 0.66 0.71 0.75
0.04 0.09 0.17 0.29 0.35 0.38 0.42 0.44 0.44 0.44 0.47 0.53 0.54 0.52 0.51 0.51 0.49 0.49 0.47 0.46 0.43 0.43 0.42 0.44 0.41 0.41 0.39 0.37 0.36 0.37 0.37 0.33 0.26 0.17 0.08 0.11 0.30 0.64 0.65 0.64 0.59 0.63 0.68
0.06 0.11 0.20 0.31 0.38 0.39 0.41 0.42 0.43 0.44 0.47 0.53 0.52 0.51 0.52 0.56 0.53 0.49 0.46 0.45 0.41 0.40 0.41 0.42 0.39 0.40 0.37 0.35 0.36 0.41 0.42 0.37 0.24 0.13 0.10 0.12 0.19 0.45 0.59 0.64 0.64 0.61 0.58
0.07 0.13 0.22 0.34 0.42 0.43 0.44 0.45 0.46 0.48 0.50 0.51 0.51 0.52 0.54 0.57 0.55 0.50 0.44 0.42 0.39 0.37 0.40 0.41 0.38 0.39 0.40 0.38 0.38 0.42 0.50 0.40 0.24 0.23 0.19 0.17 0.22 0.38 0.52 0.63 0.67 0.63 0.62
0.09 0.15 0.25 0.43 0.47 0.48 0.49 0.46 0.49 0.51 0.56 0.55 0.52 0.53 0.57 0.60 0.57 0.52 0.47 0.44 0.41 0.39 0.38 0.35 0.31 0.31 0.35 0.38 0.39 0.41 0.45 0.33 0.26 0.31 0.34 0.31 0.31 0.43 0.53 0.60 0.64 0.65 0.69
0.12 0.19 0.29 0.45 0.51 0.56 0.57 0.55 0.55 0.57 0.59 0.59 0.57 0.55 0.55 0.58 0.56 0.52 0.46 0.45 0.42 0.40 0.39 0.34 0.30 0.28 0.29 0.29 0.32 0.34 0.35 0.32 0.35 0.45 0.39 0.43 0.40 0.52 0.61 0.60 0.62 0.69 0.72
0.17 0.24 0.34 0.45 0.53 0.58 0.61 0.59 0.59 0.57 0.59 0.62 0.60 0.58 0.54 0.53 0.56 0.53 0.44 0.43 0.43 0.42 0.42 0.39 0.35 0.32 0.30 0.28 0.26 0.28 0.30 0.28 0.29 0.36 0.46 0.39 0.41 0.63 0.77 0.72 0.65 0.68 0.74
0.25 0.31 0.41 0.49 0.58 0.68 0.70 0.63 0.66 0.67 0.66 0.68 0.65 0.62 0.62 0.56 0.54 0.51 0.44 0.40 0.41 0.43 0.43 0.41 0.39 0.37 0.35 0.28 0.25 0.26 0.25 0.20 0.24 0.34 0.39 0.35 0.45 0.69 0.92 0.87 0.80 0.74 0.75
0.27 0.34 0.43 0.52 0.63 0.76 0.82 0.80 0.83 0.77 0.70 0.67 0.60 0.60 0.61 0.61 0.58 0.51 0.46 0.43 0.42 0.45 0.48 0.47 0.43 0.41 0.37 0.28 0.25 0.28 0.20 0.15 0.16 0.17 0.19 0.24 0.36 0.58 0.90 1.00 0.96 0.91 0.88
0.27 0.36 0.46 0.57 0.69 0.79 0.85 0.86 0.83 0.81 0.74 0.70 0.63 0.60 0.60 0.64 0.60 0.56 0.54 0.54 0.51 0.47 0.48 0.51 0.54 0.49 0.45 0.37 0.32 0.30 0.23 0.20 0.18 0.14 0.13 0.18 0.24 0.40 0.65 0.85 1.04 1.07 1.09
0.29 0.39 0.50 0.61 0.74 0.85 0.89 0.91 0.85 0.76 0.69 0.64 0.65 0.64 0.63 0.60 0.55 0.51 0.46 0.44 0.45 0.42 0.43 0.46 0.49 0.51 0.53 0.50 0.41 0.34 0.33 0.31 0.25 0.21 0.17 0.20 0.22 0.31 0.52 0.71 0.91 1.07 1.17
0.27 0.40 0.51 0.62 0.71 0.84 0.96 0.93 0.89 0.81 0.70 0.65 0.66 0.65 0.62 0.58 0.52 0.49 0.46 0.45 0.43 0.39 0.37 0.39 0.38 0.37 0.38 0.42 0.42 0.38 0.38 0.34 0.31 0.30 0.27 0.28 0.26 0.27 0.43 0.61 0.76 0.97 1.16
0.28 0.38 0.51 0.63 0.70 0.80 0.90 0.92 0.90 0.86 0.83 0.79 0.69 0.62 0.62 0.62 0.57 0.51 0.47 0.44 0.44 0.43 0.41 0.39 0.38 0.35 0.31 0.28 0.27 0.27 0.32 0.34 0.35 0.35 0.31 0.31 0.30 0.28 0.34 0.51 0.68 0.87 1.12
0.31 0.41 0.53 0.60 0.72 0.77 0.82 0.92 0.94 0.92 0.89 0.87 0.79 0.73 0.71 0.69 0.67 0.61 0.56 0.49 0.44 0.44 0.43 0.44 0.42 0.38 0.34 0.29 0.25 0.23 0.23 0.25 0.28 0.33 0.32 0.32 0.34 0.32 0.32 0.41 0.58 0.75 0.98
0.34 0.43 0.57 0.61 0.69 0.74 0.78 0.89 0.92 0.96 0.92 0.93 0.94 0.89 0.82 0.79 0.76 0.72 0.69 0.65 0.60 0.54 0.50 0.47 0.44 0.43 0.39 0.34 0.30 0.27 0.26 0.25 0.24 0.26 0.28 0.31 0.35 0.36 0.35 0.40 0.50 0.69 0.89
0.29 0.40 0.55 0.64 0.70 0.74 0.78 0.87 0.97 0.99 0.99 0.97 1.00 1.01 0.94 0.91 0.87 0.82 0.77 0.76 0.78 0.74 0.63 0.55 0.49 0.43 0.41 0.37 0.34 0.32 0.29 0.27 0.27 0.27 0.25 0.24 0.26 0.31 0.35 0.38 0.45 0.58 0.72
0.29 0.40 0.55 0.70 0.78 0.82 0.89 0.92 1.04 1.09 1.02 1.00 0.97 1.01 1.01 0.98 0.96 0.95 0.87 0.80 0.80 0.80 0.75 0.64 0.55 0.49 0.44 0.42 0.39 0.37 0.37 0.34 0.29 0.26 0.26 0.25 0.23 0.25 0.32 0.37 0.40 0.47 0.59
0.36 0.44 0.56 0.68 0.81 0.86 0.93 0.93 0.92 0.98 0.98 0.93 0.88 0.94 1.08 1.08 1.02 1.03 1.01 0.96 0.89 0.83 0.76 0.70 0.63 0.60 0.55 0.49 0.50 0.49 0.44 0.41 0.39 0.33 0.28 0.27 0.26 0.25 0.28 0.37 0.42 0.44 0.52
0.36 0.42 0.54 0.68 0.79 0.82 0.82 0.89 0.89 0.93 0.95 0.96 0.92 0.94 1.02 1.12 1.10 1.06 1.06 1.06 1.01 0.91 0.84 0.77 0.72 0.73 0.69 0.60 0.56 0.61 0.61 0.56 0.46 0.39 0.34 0.29 0.28 0.29 0.30 0.32 0.40 0.45 0.48
0.33 0.38 0.45 0.61 0.80 0.86 0.84 0.95 1.02 1.09 1.15 1.13 1.05 0.98 1.00 1.05 1.05 1.02 0.97 0.94 0.99 0.98 0.91 0.81 0.76 0.75 0.77 0.70 0.59 0.70 0.81 0.70 0.49 0.40 0.37 0.32 0.29 0.30 0.30 0.31 0.35 0.43 0.47
0.34 0.39 0.42 0.53 0.70 0.91 0.93 0.94 1.00 1.04 1.05 1.09 1.02 0.97 0.97 1.03 1.07 1.02 1.00 0.94 0.90 0.87 0.82 0.77 0.74 0.73 0.78 0.78 0.67 0.60 0.62 0.65 0.69 0.55 0.40 0.37 0.38 0.35 0.33 0.31 0.32 0.38 0.46
0.40 0.48 0.48 0.54 0.63 0.84 0.90 0.89 0.94 0.98 0.98 1.06 1.10 1.03 1.01 1.05 1.11 1.12 1.07 1.02 0.98 0.89 0.79 0.73 0.72 0.74 0.76 0.77 0.72 0.64 0.58 0.52 0.54 0.68 0.54 0.46 0.50 0.47 0.45 0.41 0.39 0.41 0.47
0.46 0.57 0.57 0.60 0.62 0.75 0.91 0.90 0.86 0.91 0.93 0.98 1.03 1.10 1.10 1.09 1.10 1.11 1.11 1.06 1.00 0.99 0.92 0.82 0.77 0.77 0.75 0.74 0.75 0.71 0.69 0.69 0.60 0.63 0.62 0.50 0.49 0.48 0.50 0.55 0.55 0.56 0.59